Back to catalog

CZ-6A DEB

AliveSSO
NORAD 54546·DEBRIS·🇨🇳 China

Launched Nov 11, 2022 from Taiyuan Satellite Launch Center

Loading…

Next Passes (next 24 hours)

TLE

FreshSource: Space-Track

Epoch: Sep 14, 2026, 06:23 UTC

1 54546U 22151KW  26257.26598771  .00000113  00000-0  79537-4 0  9992
2 54546  98.7962 263.4102 0024710  78.0997 282.2946 14.15672411198079

Track CZ-6A DEB in real time with AllMySat

Download on the App Store